Погода в Куруиле

Россия / Оренбургская область     51°33′02″N   57°08′20″E
темп.,
°C
ветер,
м/с
пор.,
м/с
влажн.,
%
обл.,
%
осадки,
мм/ч
давл.,
гПа
погр.,
м
19 апреля, пн
пн1923:00+12вюв61076100 0.4 1016460
02:00+7в101570100 0.3 1018680
05:00+3в101763100 0.3 1021665
08:00+1в111763100 0.1 1023715
11:000в11176799 0.1 1025693
14:00+4в101247100 0.0 10241053
17:00+6в9113830 0.0 10251335
20:00+3в8124322 0.0 10261010
20 апреля, вт
вт2023:00+1в9144755 0.0 1027829
02:00−1в81447100 0.0 1029796
05:00−2в81447100 0.0 1030772
08:00−1в814431 0.0 1031841
11:00+3в911290 0.0 10321153
14:00+6в89280 0.0 10311361
17:00+6в78290 0.0 10311378
20:00+3в59410 0.0 1031254
21 апреля, ср
ср2123:000всв23520 0.0 103343
02:00−1вюв38540 0.0 1033198
05:00−1в23550 0.0 103458
08:00+2вюв59415 0.0 1034482
11:00+6юв68315 0.0 1033906
14:00+8юв783251 0.0 1032927
17:00+7юв7103423 0.0 1032811
20:00+4вюв4949100 0.0 1033223
22 апреля, чт
чт2223:00+4вюв31148100 0.0 1033217
02:00+2вюв225461 0.0 103323
05:00+1в2256100 0.0 103412
08:00+4вюв31051100 0.0 1034374
11:00+8юв7940100 0.0 1034737
14:00+11юв7941100 0.0 10341143
17:00+11юв7944100 0.0 10331248
20:00+8вюв4957100 0.0 1033261
23 апреля, пт
пт2323:00+7юв3957100 0.0 1033226
02:00+6юв2263100 0.0 103326
05:00+5в2167100 0.0 103311
08:00+7в2764100 0.0 1033265
11:00+11юв7950100 0.0 1031971
14:00+13юв784699 0.0 10301327
17:00+14юв7842100 0.0 10281866
20:00+11ююв4858100 0.0 1028226